Flag Weather past 2 weeks in Davos, Graubünden, Switzerland

Now
48 °F

Cool.


Feels Like: 48 °F
Forecast: 32 / 41 °F
Wind: 2 mph from North

Location: Chur-Ems

Current Time: Nov 26, 2014 at 6:36:35 PM

Latest Report: Nov 26, 2014 at 6:00 PM


Visibility: N/A

Pressure: 29.94 "Hg

Humidity: 87%

Dew point: 45 °F

Location of DavosLocation

Historic Weather in Davos — Graph

°F

Davos temperature yesterday

Maximum temperature yesterday: 52 °F (at 11:00 AM)
Minimum temperature yesterday: 43 °F (at 6:00 AM)
Average temperature yesterday: 46 °F

Past Weeks' High & Low Weather Summary

 TemperatureHumidityPressure
High63 °F (Nov 14, 3:00 PM)97% (Nov 25, 5:00 AM)30.36 "Hg (Nov 25, 5:00 AM)
Low37 °F (Nov 20, 4:00 AM)40% (Nov 20, 2:00 PM)29.56 "Hg (Nov 15, 8:00 PM)
Average48 °F74%29.97 "Hg
* Reported Nov 11 5:00 PM — Nov 26 5:00 PM, Davos, Weather by CustomWeather, © 2014

Note: Actual official high and low records may vary slightly from our data, if they occured in-between our weather recording intervals... More about our weather records

Advertising

Davos weather history for previous 24 hours

 ConditionsComfort  
Time TempWeatherWind HumidityBarometerVisibility
5:00 PM
Nov 26
49 °FCool.3 mph86%29.93 "HgN/A
4:00 PM51 °FFog.6 mph82%29.92 "Hg4 mi
3:00 PM51 °FCool.7 mph79%29.93 "HgN/A
2:00 PM52 °FCool.7 mph78%29.93 "HgN/A
1:00 PM51 °FFog.2 mph78%29.94 "Hg5 mi
12:00 PM50 °FCool.5 mph80%29.97 "HgN/A
11:00 AM47 °FCool.5 mph84%30.01 "HgN/A
10:00 AM46 °FFog.3 mph87%30.02 "Hg6 mi
9:00 AM46 °FCool.2 mph91%30.03 "HgN/A
8:00 AM45 °FCool.1 mph93%30.03 "HgN/A
7:00 AM45 °FDense fog.1 mph92%30.03 "Hg1 mi
6:00 AM45 °FCool.1 mph92%30.03 "HgN/A
5:00 AM45 °FCool.2 mph93%30.04 "HgN/A
4:00 AM46 °FFog.2 mph91%30.04 "Hg3 mi
3:00 AM45 °FCool.2 mph91%30.06 "HgN/A
2:00 AM46 °FCool.3 mph91%30.06 "HgN/A
1:00 AM45 °FFog.3 mph91%30.07 "Hg2 mi
12:00 AM46 °FCool.1 mph90%30.08 "HgN/A
11:00 PM
Nov 25
46 °FCool.1 mph89%30.09 "HgN/A
10:00 PM46 °FFog.1 mph89%30.09 "Hg3 mi
9:00 PM46 °FCool.2 mph88%30.09 "HgN/A
8:00 PM46 °FCool.2 mph89%30.09 "HgN/A
7:00 PM46 °FLow clouds.1 mph90%30.10 "Hg3 mi
6:00 PM46 °FCool.2 mph91%30.10 "HgN/A
Weather by CustomWeather, © 2014

See weather overviewHow to use our weather pages